Find Starlink 6176

NORAD ID: 56388 Int'l Des: 2023-061 Owner: SPXS Country: US Constellation: starlink operational
LEOCIRCULAR

Live Position

Loading 3D Globe...

About Starlink 6176

Description loading...

Upcoming Passes

Passes for default location (London). Set your location on the main map for personalized predictions.

Altitude History

Loading altitude history...

Two-Line Element Set

1 56388U 23061Q 26105.95010917 .00000466 00000-0 26474-4 0 9991
2 56388 43.0028 347.8401 0001102 247.9656 112.1079 15.27579064162443
Epoch: Apr 15, 2026 • Age: 18 hours

Current Status

Altitude 482.3 km
Velocity 7.63 km/s
Sub-Earth Point 3.74°N, 62.39°E
Launch Date May 4, 2023
Age 2.9 years
Type internet

Technical Details

Classification Payload
Mass 305.00 kg
Dry Mass 290.00 kg
Total Mass 305.00 kg
Length 0.20 m
Diameter 2.80 m
Span 9.00 m
Shape Box + pan
Manufacturer SPXS
Bus Type Starlink
Phase Status In Orbit
Owner/State SPXS/US

Most Searched